AirNav   Pilot Hours Calculator
 
 794 users online  

KMLE Millard Airport
Omaha, Nebraska, USA

GOING TO OMAHA?


FAA INFORMATION EFFECTIVE 28 FEBRUARY 2019

Location

FAA Identifier: MLE
Lat/Long: 41-11-45.5500N / 096-06-44.1530W
41-11.759167N / 096-06.735883W
41.1959861 / -96.1122647
(estimated)
Elevation: 1050.7 ft. / 320.3 m (surveyed)
Variation: 06E (1990)
From city: 7 miles SW of OMAHA, NE
Time zone: UTC -6 (UTC -5 during Daylight Saving Time)
Zip code: 68137

Airport Operations

Airport use: Open to the public
Control tower: no
ARTCC: MINNEAPOLIS CENTER
FSS: COLUMBUS FLIGHT SERVICE STATION
NOTAMs facility: MLE (NOTAM-D service available)
Attendance: 0630-2100
FOR SVC AFT 2100 CALL 402-953-9905 OR 402-690-3099.
Wind indicator: lighted
Segmented circle: no
Lights: ACTVT MIRL RY 12/30 & REIL RY 12 - CTAF.
Beacon: white-green (lighted land airport)
Operates sunset to sunrise.
International operations: customs landing rights airport

Airport Communications

CTAF/UNICOM: 123.0
WX AWOS-3: 118.25 (402-895-6778)
OMAHA APPROACH: 120.1
OMAHA DEPARTURE: 120.1
CLEARANCE DELIVERY: 125.4
WX ASOS at OMA (12 nm NE): PHONE 402-271-7515
WX AWOS-3 at BTA (13 nm N): 120.225 (402-426-0448)
WX AWOS-3 at CBF (16 nm E): 126.575 (712-323-1542)
WX AWOS-3 at PMV (17 nm SE): 118.975 (402-298-7524)
  • A CONTINUOUS TRANSCRIBED BROADCAST FOR MILLARD ARPT WHICH INCLUDES TEMPERATURE / DEWPOINT / WIND SPEED AND DIRECTION; AND ALTIMETER SETTING IS AVAILABLE ON FREQ 118.25 OR BY TELEPHONE (402) 895-6778.

Nearby radio navigation aids

VOR radial/distance  VOR name  Freq  Var
OVRr268/17.0OMAHA VORTAC116.3008E
LNKr051/32.8LINCOLN VORTAC116.1009E
SCBr131/33.8SCRIBNER VOR/DME111.0006E

 
NDB name  Hdg/Dist  Freq  Var  ID
PLATTSMOUTH324/17.632905EPMV .--. -- ...-
WAHOO091/22.140006EAHQ .- .... --.-
NEBRASKA CITY337/37.234705EAFK .- ..-. -.-

Airport Services

Fuel available: 100LL JET-A1+
Parking: hangars and tiedowns
Airframe service: MAJOR
Powerplant service: MAJOR
Bottled oxygen: HIGH/LOW
Bulk oxygen: HIGH/LOW

Runway Information

Runway 12/30

Dimensions: 3801 x 75 ft. / 1159 x 23 m
Surface: asphalt, in good condition
Weight bearing capacity: 
Single wheel: 25.0
Double wheel: 28.0
Runway edge lights: medium intensity
RUNWAY 12  RUNWAY 30
Latitude: 41-11.955133N41-11.563217N
Longitude: 096-07.058867W096-06.412900W
Elevation: 1050.6 ft.1046.0 ft.
Gradient: 0.1%0.1%
Traffic pattern: leftleft
Runway heading: 123 magnetic, 129 true303 magnetic, 309 true
Displaced threshold: 212 ft.no
Declared distances: TORA:3801 TODA:3801 ASDA:3801 LDA:3588TORA:3801 TODA:3801 ASDA:3588 LDA:3801
Markings: nonprecision, in good conditionnonprecision, in good condition
Visual slope indicator: 2-light PAPI on left (3.08 degrees glide path)2-light PAPI on left (3.08 degrees glide path)
Runway end identifier lights: yes
Touchdown point: yes, no lightsyes, no lights
Obstructions: 17 ft. road, 410 ft. from runway, 285 ft. right of centerline, 12:1 slope to clear
APCH RATIO 36:1 FROM DSPLCD THR
62 ft. pole, 1633 ft. from runway, 30 ft. left of centerline, 23:1 slope to clear

Airport Ownership and Management from official FAA records

Ownership: Publicly-owned
Owner: OMAHA AIRPORT AUTHORITY
4501 ABBOTT DRIVE, SUITE 2300
OMAHA, NE 68110-2689
Phone 402-661-8000
Manager: DAVID ROTH
4501 ABBOTT DRIVE, SUITE 2300
OMAHA, NE 68110-2689
Phone 402-661-8000

Airport Operational Statistics

Aircraft based on the field: 134
Single engine airplanes: 125
Multi engine airplanes: 9
    
Aircraft operations: avg 66/day *
59% transient general aviation
35% local general aviation
6% air taxi
<1% military
* for 12-month period ending 09 May 2018

Additional Remarks

MIL JETS OVERFLYING AT 3000 FT MSL.
AFTER TKOF ON RY 30 ALTER HDG 20 DEGS TO THE R TO AVOID NOISE SENSITIVE AREA.
NORMAL CALM & CROSS WIND TKOFS & LNDGS OF RY 12; NO INTXN TKOFS.
RADIO CONTROLLED ACFT OCCASIONAL OPERATION 1.7 MI SW OF ARPT.
VFR ACFT REQUESTING FLIGHT FLWG & IFR ACFT SHOULD CONTACT OMAHA APCH ON FREQ 125.4 PRIOR TO TAKING THE RY FOR CLNC/TRAFFIC ADVISORIES/GEN INFO.
DEER ON & INVOF ARPT.
SELF-SVC FUEL AVBL 24 HRS WITH CREDIT CARD.

Instrument Procedures

NOTE: All procedures below are presented as PDF files. If you need a reader for these files, you should download the free Adobe Reader.

NOT FOR NAVIGATION. Please procure official charts for flight.
FAA instrument procedures published for use from 28 February 2019 at 0901Z to 28 March 2019 at 0900Z.

 
IAPs - Instrument Approach Procedures
RNAV (GPS) RWY 12   download (206KB)
RNAV (GPS) RWY 30   download (176KB)
NOTE: Special Alternate Minimums apply   download (15KB)
NOTE: Special Take-Off Minimums/Departure Procedures apply   download (147KB)

Other nearby airports with instrument procedures:

KOFF - Offutt Air Force Base (10 nm SE)
KOMA - Eppley Airfield (12 nm NE)
KBTA - Blair Municipal Airport (13 nm N)
KCBF - Council Bluffs Municipal Airport (16 nm E)
KPMV - Plattsmouth Municipal Airport (17 nm SE)
 
Loc | Ops | Rwys | IFR | FBO | Links
Com | Nav | Svcs | Stats | Notes

Silverhawk Aviation, Inc.
AirBoss

 
Area around KMLE (Millard Airport)
 
Road maps at: MapQuest Bing Google
 
Aerial photo
WARNING: Photo may not be current or correct
Aerial photo of KMLE (Millard Airport)
Photo by Vicki Eifert
Photo taken 18-Aug-2017
looking northwest.

Do you have a better or more recent aerial photo of Millard Airport that you would like to share? If so, please send us your photo.

 
Sectional chart

 
Airport diagram
CAUTION: Diagram may not be current
Diagram of KMLE (Millard Airport)
 
Airport distance calculator
Flying to Millard Airport? Find the distance to fly.

From to KMLE

Sunrise and sunset
Times for 20-Mar-2019
 Local
(UTC-5)
 Zulu
(UTC)
Morning civil twilight07:0112:01
Sunrise07:2912:29
Sunset19:3500:35
Evening civil twilight20:0301:03

Current date and time
Zulu (UTC)  21-Mar-2019 02:56:40
Local (UTC-5)  20-Mar-2019 21:56:40
 
METAR
KMLE 210235Z AUTO 33007KT 10SM CLR 08/03 A3013 RMK AO2 T00840029
KOFF 
10nm SE 
210156Z 31008KT 10SM SCT041 09/02 A3010 RMK AO2A SLPNO $
KOMA 
12nm NE 
210152Z 33011KT 10SM BKN042 08/02 A3009 RMK AO2 SLP195 T00830022
KBTA 
13nm N 
210235Z AUTO 32011KT 10SM CLR 06/02 A3011 RMK AO2 T00600021
KCBF 
16nm E 
210235Z AUTO 33009KT 10SM CLR 07/04 A3010 RMK AO2
KPMV 
17nm SE 
210235Z AUTO 32010KT 10SM SCT038 07/03 A3011 RMK AO2 T00700030
TAF
KOFF 
10nm SE 
202040Z 2020/2124 30010G15KT 9999 SKC QNH3000INS TEMPO 2020/2024 33015G25KT 510003 BECMG 2023/2024 34012G20KT 9999 SCT020 510003 QNH3004INS TEMPO 2100/2101 33015G25KT BECMG 2102/2103 34009KT 3200 BR BKN015 620302 QNH3005INS BECMG 2108/2109 VRB06KT 9999 NSW BKN006 620103 QNH3019INS BECMG 2116/2117 VRB06KT 9999 SCT020 QNH3015INS TX18/2022Z TN00/2113Z
KOMA 
12nm NE 
201720Z 2018/2118 27012KT P6SM SKC FM202000 32014G24KT P6SM SKC FM210100 33011KT P6SM FEW020 FM210600 33007KT P6SM SCT010
NOTAMs
Click for the latest NOTAMs
NOTAMs are issued by the DoD/FAA and will open in a separate window not controlled by AirNav.

 

 
 

FBO, Fuel Providers, and Aircraft Ground Support

  
 Business Name 
 
 Contact 
 
 Services / Description 
 
Fuel Prices
 
Comments
  
 Oracle Aviation
UNICOM 123.00
402-934-5300
[web site]
[email]
We are dedicated to providing the highest level of customer service. Oracle is centrally located in the Greater Omaha Area. We are minutes from downtown, midtown, UNO, West Omaha, Bellevue, LaVista, Bennington and Blair. We are also centrally located within the United States. Oracle is a full service FBO, with competitive fuel pricing, courtesy vehicle, pilots lounge/sleep room, conference room, Aircraft Sales, 141/61 Flight School and Full Maintenance Service. Just outside Eppley's Class C, easy access and quick turnarounds.
More info and photos of Oracle Aviation
Phillips 66
100LL Jet A
FS $4.99 $4.29 
SS $4.74 $4.04 
 Updated 12-Mar-2019
 
   8 read write
FS=Full service
SS=Self service
Update Fuel Prices
 

Would you like to see your business listed on this page?

 If your business provides an interesting product or service to pilots, flight crews, aircraft, or users of the Millard Airport, you should consider listing it here.  To start the listing process, click on the button below
 
Add a business
 

Other Pages about Millard Airport

Update a link
 
Copyright © AirNav, LLC. All rights reserved. Privacy Policy  Contact